• In Uzbekistan
  • List of Countries
  • For 7 days
  • Water Temperature
  • Satellite Maps
  • Weather Map
  • Weather Widgets
  • user-avatar
    Login

    Hourly Weather Maun

    Today, 25 June, Monday

    Time Temperature Precipitation Wind Pressure Humidity
    00:00 +16°C° 0 mm 2 mps 684 mmHg 44%
    01:00 +15°C° 0 mm 2 mps 684 mmHg 45%
    02:00 +15°C° 0 mm 2 mps 684 mmHg 47%
    03:00 +14°C° 0 mm 2 mps 684 mmHg 48%
    04:00 +14°C° 0 mm 2 mps 684 mmHg 50%
    05:00 +13°C° 0 mm 2 mps 684 mmHg 51%
    06:00 +14°C° 0 mm 2 mps 684 mmHg 50%
    07:00 +14°C° 0 mm 2 mps 684 mmHg 49%
    08:00 +15°C° 0 mm 2 mps 685 mmHg 46%
    09:00 +18°C° 0 mm 3 mps 685 mmHg 39%
    10:00 +21°C° 0 mm 3 mps 686 mmHg 32%
    11:00 +25°C° 0 mm 3 mps 686 mmHg 25%
    12:00 +26°C° 0 mm 3 mps 685 mmHg 23%
    13:00 +27°C° 0 mm 2 mps 685 mmHg 21%
    14:00 +28°C° 0 mm 2 mps 684 mmHg 19%
    15:00 +28°C° 0 mm 2 mps 684 mmHg 19%
    16:00 +27°C° 0 mm 2 mps 683 mmHg 19%
    17:00 +27°C° 0 mm 2 mps 683 mmHg 19%
    18:00 +24°C° 0 mm 2 mps 683 mmHg 23%
    19:00 +21°C° 0 mm 2 mps 683 mmHg 27%
    20:00 +18°C° 0 mm 2 mps 683 mmHg 31%
    21:00 +18°C° 0 mm 2 mps 683 mmHg 33%
    22:00 +17°C° 0 mm 2 mps 683 mmHg 34%
    23:00 +16°C° 0 mm 2 mps 684 mmHg 36%

    Tomorrow, 26 June, Tuesday

    Time Temperature Precipitation Wind Pressure Humidity
    00:00 +16°C° 0 mm 2 mps 684 mmHg 37%
    01:00 +16°C° 0 mm 2 mps 684 mmHg 37%
    02:00 +15°C° 0 mm 2 mps 684 mmHg 38%
    03:00 +15°C° 0 mm 2 mps 683 mmHg 39%
    04:00 +14°C° 0 mm 2 mps 683 mmHg 40%
    05:00 +13°C° 0 mm 2 mps 683 mmHg 41%
    06:00 +14°C° 0 mm 2 mps 683 mmHg 41%
    07:00 +14°C° 0 mm 2 mps 684 mmHg 41%
    08:00 +14°C° 0 mm 2 mps 684 mmHg 41%
    09:00 +17°C° 0 mm 2 mps 685 mmHg 35%
    10:00 +21°C° 0 mm 2 mps 686 mmHg 29%
    11:00 +25°C° 0 mm 3 mps 686 mmHg 23%
    12:00 +27°C° 0 mm 2 mps 686 mmHg 22%
    13:00 +28°C° 0 mm 2 mps 685 mmHg 20%
    14:00 +29°C° 0 mm 2 mps 685 mmHg 18%
    15:00 +29°C° 0 mm 2 mps 684 mmHg 19%
    16:00 +28°C° 0 mm 2 mps 684 mmHg 19%
    17:00 +28°C° 0 mm 2 mps 684 mmHg 19%
    18:00 +25°C° 0 mm 2 mps 684 mmHg 23%
    19:00 +23°C° 0 mm 2 mps 684 mmHg 27%
    20:00 +19°C° 0 mm 2 mps 684 mmHg 31%
    21:00 +19°C° 0 mm 2 mps 684 mmHg 32%
    22:00 +18°C° 0 mm 2 mps 684 mmHg 34%
    23:00 +17°C° 0 mm 2 mps 684 mmHg 35%

    Day after tomorrow, 27 June, Wednesday

    Time Temperature Precipitation Wind Pressure Humidity
    00:00 +17°C° 0 mm 2 mps 684 mmHg 36%
    01:00 +16°C° 0 mm 2 mps 684 mmHg 37%
    02:00 +16°C° 0 mm 2 mps 684 mmHg 38%
    03:00 +15°C° 0 mm 2 mps 684 mmHg 40%
    04:00 +15°C° 0 mm 2 mps 684 mmHg 42%
    05:00 +14°C° 0 mm 2 mps 684 mmHg 44%
    06:00 +14°C° 0 mm 2 mps 684 mmHg 45%
    07:00 +14°C° 0 mm 2 mps 685 mmHg 45%
    08:00 +15°C° 0 mm 2 mps 685 mmHg 46%
    09:00 +18°C° 0 mm 2 mps 686 mmHg 39%
    10:00 +22°C° 0 mm 3 mps 687 mmHg 32%
    11:00 +26°C° 0 mm 3 mps 687 mmHg 26%
    12:00 +27°C° 0 mm 3 mps 687 mmHg 23%
    13:00 +28°C° 0 mm 3 mps 686 mmHg 20%
    14:00 +29°C° 0 mm 3 mps 686 mmHg 17%
    15:00 +29°C° 0 mm 3 mps 685 mmHg 17%
    16:00 +28°C° 0 mm 3 mps 685 mmHg 17%
    17:00 +28°C° 0 mm 3 mps 684 mmHg 18%
    18:00 +25°C° 0 mm 3 mps 684 mmHg 21%
    19:00 +22°C° 0 mm 3 mps 684 mmHg 25%
    20:00 +19°C° 0 mm 3 mps 684 mmHg 29%
    21:00 +18°C° 0 mm 3 mps 684 mmHg 30%
    22:00 +18°C° 0 mm 2 mps 684 mmHg 32%
    23:00 +17°C° 0 mm 2 mps 685 mmHg 34%

    28 June, Thursday

    Time Temperature Precipitation Wind Pressure Humidity
    00:00 +16°C° 0 mm 2 mps 684 mmHg 35%
    01:00 +16°C° 0 mm 2 mps 684 mmHg 37%
    02:00 +15°C° 0 mm 1 mps 684 mmHg 38%
    03:00 +15°C° 0 mm 1 mps 684 mmHg 39%
    04:00 +14°C° 0 mm 2 mps 684 mmHg 41%
    05:00 +14°C° 0 mm 2 mps 684 mmHg 42%
    06:00 +14°C° 0 mm 2 mps 684 mmHg 42%
    07:00 +14°C° 0 mm 2 mps 685 mmHg 41%
    08:00 +14°C° 0 mm 2 mps 685 mmHg 41%
    09:00 +17°C° 0 mm 2 mps 686 mmHg 34%
    10:00 +21°C° 0 mm 3 mps 686 mmHg 27%
    11:00 +25°C° 0 mm 3 mps 687 mmHg 21%
    12:00 +26°C° 0 mm 3 mps 687 mmHg 19%
    13:00 +28°C° 0 mm 3 mps 686 mmHg 16%
    14:00 +29°C° 0 mm 3 mps 685 mmHg 14%
    15:00 +28°C° 0 mm 3 mps 685 mmHg 15%
    16:00 +28°C° 0 mm 4 mps 685 mmHg 16%
    17:00 +27°C° 0 mm 4 mps 684 mmHg 16%
    18:00 +25°C° 0 mm 3 mps 684 mmHg 20%
    19:00 +21°C° 0 mm 3 mps 684 mmHg 24%
    20:00 +18°C° 0 mm 2 mps 684 mmHg 27%
    21:00 +18°C° 0 mm 2 mps 684 mmHg 29%
    22:00 +18°C° 0 mm 1 mps 684 mmHg 30%
    23:00 +16°C° 0 mm 1 mps 684 mmHg 31%

    29 June, Friday

    Time Temperature Precipitation Wind Pressure Humidity
    00:00 +16°C° 0 mm 1 mps 684 mmHg 32%
    01:00 +15°C° 0 mm 1 mps 684 mmHg 33%
    02:00 +14°C° 0 mm 1 mps 684 mmHg 34%
    03:00 +14°C° 0 mm 1 mps 683 mmHg 36%
    04:00 +13°C° 0 mm 1 mps 683 mmHg 37%
    05:00 +13°C° 0 mm 2 mps 683 mmHg 39%
    06:00 +13°C° 0 mm 2 mps 684 mmHg 39%
    07:00 +13°C° 0 mm 2 mps 684 mmHg 38%
    08:00 +13°C° 0 mm 2 mps 685 mmHg 38%
    09:00 +17°C° 0 mm 2 mps 685 mmHg 32%
    10:00 +20°C° 0 mm 2 mps 686 mmHg 26%
    11:00 +25°C° 0 mm 3 mps 686 mmHg 19%
    12:00 +26°C° 0 mm 3 mps 686 mmHg 17%
    13:00 +27°C° 0 mm 2 mps 685 mmHg 15%
    14:00 +29°C° 0 mm 2 mps 685 mmHg 13%
    15:00 +28°C° 0 mm 2 mps 684 mmHg 13%
    16:00 +28°C° 0 mm 2 mps 684 mmHg 13%
    17:00 +28°C° 0 mm 2 mps 684 mmHg 14%
    18:00 +25°C° 0 mm 2 mps 684 mmHg 17%
    19:00 +21°C° 0 mm 2 mps 683 mmHg 20%
    20:00 +18°C° 0 mm 2 mps 683 mmHg 23%
    21:00 +17°C° 0 mm 2 mps 684 mmHg 24%
    22:00 +17°C° 0 mm 2 mps 684 mmHg 26%
    23:00 +16°C° 0 mm 2 mps 684 mmHg 28%

    30 June, Saturday

    Time Temperature Precipitation Wind Pressure Humidity
    00:00 +15°C° 0 mm 2 mps 683 mmHg 29%
    01:00 +15°C° 0 mm 2 mps 683 mmHg 30%
    02:00 +14°C° 0 mm 2 mps 683 mmHg 31%
    03:00 +14°C° 0 mm 2 mps 683 mmHg 33%
    04:00 +13°C° 0 mm 2 mps 683 mmHg 34%
    05:00 +13°C° 0 mm 2 mps 683 mmHg 35%
    06:00 +13°C° 0 mm 2 mps 683 mmHg 36%
    07:00 +13°C° 0 mm 2 mps 684 mmHg 36%
    08:00 +14°C° 0 mm 2 mps 684 mmHg 37%
    09:00 +17°C° 0 mm 2 mps 685 mmHg 31%
    10:00 +21°C° 0 mm 3 mps 686 mmHg 25%
    11:00 +26°C° 0 mm 3 mps 686 mmHg 19%
    12:00 +27°C° 0 mm 3 mps 686 mmHg 16%
    13:00 +29°C° 0 mm 3 mps 685 mmHg 14%
    14:00 +30°C° 0 mm 3 mps 684 mmHg 11%
    15:00 +29°C° 0 mm 3 mps 684 mmHg 11%
    16:00 +29°C° 0 mm 2 mps 684 mmHg 12%
    17:00 +29°C° 0 mm 2 mps 683 mmHg 12%
    18:00 +26°C° 0 mm 2 mps 683 mmHg 15%
    19:00 +23°C° 0 mm 2 mps 683 mmHg 18%
    20:00 +19°C° 0 mm 2 mps 683 mmHg 21%
    21:00 +18°C° 0 mm 2 mps 683 mmHg 23%
    22:00 +17°C° 0 mm 2 mps 684 mmHg 24%
    23:00 +16°C° 0 mm 2 mps 684 mmHg 26%
    Show more